Notices

What's New in latest Release from April 7th, 2021:

- Updated Glossary, including Speed of Maximum Gust, and Total Hourly Precipitation

- Updated national and regional climate services offices contacts and prices information

- Addition of station inventory lists for 1981-2010, 1971-2000, and 1961-1990 Normals.

If you haven't already, please take our survey and provide feedback about our website: https://eccc.sondage-survey.ca/f/LanguageSelection.aspx?s=442ca660-fcf1-47c0-95a9-59707d6fd709

Hourly Data Report for July 20, 2018

TORONTO CITY
ONTARIO
Current Station Operator: ECCC - MSC

43°40'00.000" N
79°24'00.000" W
112.50 m
6158355
71508
XTO

Download Data

Hourly Data (July 2018)
Hourly Data Report for July 20, 2018
TIME
LST
Temp Definition
°C
Dew Point Definition
°C
Rel Hum Definition
%
Precip. Amount Definition
mm

Wind Dir Definition
10's deg

Wind Spd Definition
km/h
Visibility Definition
km
Stn Press Definition
kPa
Hmdx Definition


Wind Chill Definition


Weather Definition


00:00 21.7 13.8 61 0.0 LegendMM LegendMM   100.37 25   LegendNANA
01:00 21.2 14.3 65 0.0 LegendMM LegendMM   100.34 25   LegendNANA
02:00 21.4 14.7 66 0.0 LegendMM LegendMM   100.32 25   LegendNANA
03:00 19.7 15.0 74 0.0 LegendMM LegendMM   100.31     LegendNANA
04:00 19.6 15.7 78 0.0 LegendMM LegendMM   100.28     LegendNANA
05:00 19.7 16.1 79 0.0 LegendMM LegendMM   100.28     LegendNANA
06:00 20.3 16.4 79 0.0 LegendMM LegendMM   100.29 25   LegendNANA
07:00 22.0 17.0 73 0.0 LegendMM LegendMM   100.30 27   LegendNANA
08:00 23.6 15.8 61 0.0 LegendMM LegendMM   100.30 28   LegendNANA
09:00 24.8 14.8 54 0.0 LegendMM LegendMM   100.28 29   LegendNANA
10:00 25.4 14.8 52 0.0 LegendMM LegendMM   100.26 29   LegendNANA
11:00 26.1 15.6 53 0.0 LegendMM LegendMM   100.24 30   LegendNANA
12:00 27.3 14.9 47 0.0 LegendMM LegendMM   100.20 31   LegendNANA
13:00 27.2 12.2 39 0.0 LegendMM LegendMM   100.16 30   LegendNANA
14:00 27.3 13.8 43 0.0 LegendMM LegendMM   100.08 31   LegendNANA
15:00 28.0 14.2 43 0.0 LegendMM LegendMM   100.04 31   LegendNANA
16:00 27.3 15.3 48 0.0 LegendMM LegendMM   99.96 31   LegendNANA
17:00 26.5 16.2 53 0.0 LegendMM LegendMM   99.92 31   LegendNANA
18:00 26.8 16.4 53 0.0 LegendMM LegendMM   99.86 32   LegendNANA
19:00 25.9 17.0 58 0.0 LegendMM LegendMM   99.86 31   LegendNANA
20:00 25.5 17.1 60 0.0 LegendMM LegendMM   99.83 31   LegendNANA
21:00 26.6 16.1 53 0.0 LegendMM LegendMM   99.85 31   LegendNANA
22:00 26.2 15.4 51 0.0 LegendMM LegendMM   99.86 30   LegendNANA
23:00 25.9 15.2 51 0.0 LegendMM LegendMM   99.87 30   LegendNANA

Notes on Data Quality.

Legend

  • E = Estimated
  • M = Missing
  • NA = Not Available*
  • [empty] = Indicates an unobserved value
Date modified: